Temperature
16 16 16 17 17 17 17 18 18 18 18 17 16 16 16 16 16 16 15 16 16 16 16 16 16 15 15 15 15 15 15 15 15 15 15 15 14 14
16 16 16 16 16 16 16 17 17 17 18 17 16 15 15 15 15 15 15 15 15 15 15 15 15 15 15 15 15 15 15 14 14 14 14 14 14 14
15 15 16 16 16 16 16 16 16 16 16 16 15 15 15 14 14 14 14 14 14 14 14 14 14 14 14 14 14 14 14 14 14 14 14 14 14 14
15 15 15 15 15 15 15 15 15 15 15 15 14 14 14 13 13 13 13 13 13 13 13 13 14 14 13 13 13 13 13 13 13 13 13 13 13 13
15 15 15 15 15 15 14 14 14 14 14 14 13 13 12 12 12 12 12 12 12 12 12 12 12 12 12 12 12 12 12 12 12 12 12 12 12 12
14 14 14 14 14 14 14 14 13 13 13 13 13 12 12 11 11 11 11 11 11 11 11 11 11 11 11 11 11 11 11 11 11 11 11 11 11 11
14 13 13 13 13 13 13 13 13 12 12 12 12 11 11 10 10 10 10 10 10 10 10 10 10 9 9 9 9 9 9 9 9 9 9 9 9 10
13 13 13 12 12 12 12 12 12 12 11 11 11 10 9 9 9 9 9 9 9 9 9 9 9 9 8 8 8 8 8 8 8 8 8 8 8 8
12 12 11 11 11 11 11 11 11 11 10 10 9 9 8 8 8 8 8 7 8 8 8 8 8 8 8 8 7 7 7 7 7 7 7 7 7 7
11 11 11 10 10 10 9 9 9 9 9 9 8 8 8 8 7 7 7 7 7 7 7 7 7 7 7 7 6 6 6 6 6 6 6 6 6 6
10 10 10 10 9 9 8 8 8 8 8 8 8 7 7 7 7 6 6 7 7 7 6 6 6 6 6 6 6 5 5 5 5 5 5 5 5 5
9 9 9 9 8 8 7 7 7 7 6 6 6 6 6 5 5 5 5 5 6 6 6 5 5 5 5 6 5 5 5 4 4 4 4 4 4 4
8 8 8 7 7 7 7 7 7 6 6 6 5 5 5 5 5 4 4 4 4 4 4 3 4 4 4 4 4 5 4 4 4 4 4 3 3 3
7 7 7 7 6 6 6 6 6 5 5 5 5 5 4 4 4 3 4 3 3 3 3 3 2 2 3 3 4 4 4 4 4 4 3 3 3 3
7 6 6 6 5 5 5 5 5 5 4 5 4 4 3 3 3 3 3 3 3 3 2 2 2 2 2 2 3 3 3 3 3 3 3 3 3 3
6 5 5 5 5 5 4 4 4 4 4 4 3 3 3 3 3 3 3 3 3 3 2 2 2 2 2 2 2 3 3 3 3 3 3 2 3 3
5 5 5 5 5 4 4 4 4 4 3 3 3 3 3 3 3 3 2 3 3 3 3 2 2 2 2 2 2 3 3 3 2 2 2 2 2 2
5 5 5 5 5 4 4 4 3 3 3 3 3 3 3 3 3 2 2 2 2 2 2 2 2 2 2 3 2 2 2 2 2 2 2 2 2 2
5 5 4 4 4 4 4 4 3 3 2 2 2 2 2 2 2 2 2 2 2 2 2 2 2 2 2 2 2 2 1 1 1 2 2 2 2 2
5 5 4 4 4 4 4 3 3 3 2 2 2 2 2 2 2 2 2 1 1 2 2 2 2 1 1 1 1 2 2 1 1 1 1 1 1 1
5 4 4 4 4 3 3 3 2 2 2 2 2 2 2 2 2 2 2 1 1 2 2 2 1 1 1 1 2 2 2 2 1 1 1 1 1 1
4 4 4 3 3 3 3 2 3 2 2 2 2 2 2 2 2 2 2 2 2 2 1 2 1 1 1 1 2 2 2 2 2 2 1 1 1 1
4 4 4 3 3 3 3 2 2 3 2 2 2 2 2 2 2 2 2 2 2 2 2 2 2 2 2 2 2 2 2 2 2 2 2 2 1 1
Wind_Speed
5 5 4 3 3 3 3 4 5 5 3 3 2 3 2 3 4 2 3 7 5 4 2 2 2 3 4 5 6 6 7 8 9 10 12 13 14 15
2 2 3 3 2 2 3 4 4 5 3 1 1 3 4 3 5 3 3 8 9 8 6 5 4 3 3 3 4 5 5 6 7 8 9 10 12 13
4 4 3 1 1 1 2 2 3 3 3 1 2 3 4 4 4 4 3 2 6 10 9 8 7 6 6 6 6 6 6 6 7 8 9 10 11 12
5 4 3 2 2 1 1 1 1 2 2 1 1 2 3 3 3 3 4 4 4 10 9 8 7 6 6 6 7 7 7 8 8 9 9 10 11 11
4 4 3 3 3 2 2 2 1 1 1 1 0 2 2 3 3 3 3 4 3 4 5 5 5 5 5 5 6 7 9 10 10 10 11 11 11 12
6 6 6 5 5 4 4 3 3 2 2 1 1 2 2 3 3 3 3 3 4 4 6 4 1 1 2 4 6 8 10 10 11 11 11 12 13 13
9 9 10 11 12 9 5 4 3 2 2 2 2 3 4 4 4 4 4 4 3 4 6 6 4 4 2 2 5 10 10 10 10 11 12 13 14 14
10 10 11 12 15 17 18 16 12 6 4 3 4 4 5 5 5 5 5 6 5 5 7 7 6 5 6 5 7 9 9 9 11 12 13 15 15 16
9 9 8 9 10 11 13 14 15 15 11 6 7 6 5 6 6 6 6 7 7 7 7 8 6 7 8 6 3 4 6 9 11 14 15 16 17 18
9 9 10 9 8 8 9 10 10 10 10 8 8 7 7 7 6 6 6 6 6 3 5 8 8 8 9 10 3 2 5 10 12 14 16 17 18 20
10 9 9 9 8 6 9 9 9 8 12 13 10 8 8 8 9 7 7 7 7 6 5 7 9 10 10 9 4 4 9 12 13 15 17 17 18 20
9 10 11 10 9 6 7 7 7 6 5 5 5 3 3 4 4 7 8 8 8 7 7 8 10 10 9 8 9 13 13 12 13 15 16 17 16 16
9 9 9 12 12 12 9 8 5 2 3 3 3 4 4 5 6 8 8 8 8 8 9 9 10 10 10 11 12 12 13 13 14 14 13 12 12 14
9 10 10 13 13 12 9 6 3 4 3 4 4 5 5 6 6 8 8 8 8 9 10 10 10 11 12 13 13 12 12 13 13 12 13 14 14 15
11 14 13 13 12 10 8 2 2 4 5 4 5 5 6 6 7 6 6 7 8 7 7 8 10 10 11 12 13 13 13 12 11 11 12 13 13 14
12 14 11 7 7 7 5 3 5 6 5 5 5 5 5 6 6 7 8 8 7 6 6 8 9 10 11 12 13 13 13 11 12 12 13 13 14 14
10 8 7 6 5 5 5 5 4 4 5 5 5 5 6 6 6 6 7 8 8 8 9 8 10 11 11 11 12 12 12 12 13 13 14 14 13 12
6 7 5 5 4 4 4 4 4 4 4 4 5 5 6 6 7 7 7 8 9 9 9 10 10 11 11 8 6 11 12 13 13 14 14 14 14 12
5 6 5 5 4 4 3 3 4 4 3 4 5 5 6 6 7 7 8 8 9 10 10 10 10 11 13 13 10 9 12 13 13 13 13 13 14 13
5 6 5 5 4 3 3 3 3 3 3 4 4 5 6 7 7 8 8 9 10 10 10 10 10 11 12 13 13 14 11 11 13 14 14 14 13 13
5 5 5 4 4 3 3 2 2 3 4 4 4 5 6 6 7 8 8 8 9 10 11 11 10 11 11 11 12 12 12 11 11 12 14 13 14 13
5 5 4 3 3 2 1 1 1 2 3 4 5 5 6 6 7 8 9 9 9 10 12 11 11 11 10 12 13 14 14 14 13 12 11 10 11 12
4 4 4 3 2 1 0 1 2 3 3 4 5 5 6 7 7 8 9 9 10 11 12 12 11 11 11 12 12 13 15 15 13 12 10 8 11 17
Wind_Direction
200 198 228 225 240 249 259 269 275 264 215 161 176 78 38 59 40 53 59 73 67 46 18 335 304 294 287 287 289 289 286 283 279 277 275 273 272 270
208 195 228 229 231 248 260 265 276 285 286 92 104 55 26 21 58 39 71 94 73 59 51 45 37 21 1 348 335 324 316 312 308 303 298 293 288 283
185 183 193 255 234 243 258 275 285 289 268 209 101 74 45 19 27 11 12 14 74 70 60 52 44 39 34 30 24 15 7 352 338 328 320 313 305 299
179 172 173 169 162 296 322 325 343 335 289 261 61 70 54 31 28 359 12 15 44 82 70 53 43 41 39 35 27 18 9 359 350 341 333 326 319 312
145 142 136 129 121 90 53 46 31 31 350 270 78 43 37 23 3 13 27 5 352 95 86 68 50 41 40 41 31 19 10 1 354 348 343 338 332 326
100 97 92 90 88 85 78 61 54 60 68 61 76 71 44 26 2 351 352 3 347 353 5 349 18 194 134 78 50 31 17 7 1 357 351 345 339 333
100 92 84 77 65 60 62 56 56 59 76 77 72 59 41 20 8 353 348 337 347 1 339 330 330 329 318 139 71 34 15 7 2 358 352 346 340 333
110 102 96 87 81 74 67 59 51 53 56 55 66 61 44 25 7 351 349 337 333 6 333 322 326 323 324 330 46 24 6 357 353 349 344 339 333 328
113 111 105 98 97 95 88 81 67 56 48 50 66 51 43 26 1 352 358 338 327 330 327 316 324 320 319 333 43 353 339 333 332 332 330 327 323 319
102 102 103 100 94 99 98 87 77 63 56 58 63 51 43 19 353 336 325 308 291 316 340 315 325 322 319 312 270 237 296 301 305 310 311 312 312 310
98 96 101 101 79 90 103 98 92 91 85 84 80 80 70 43 5 342 342 328 328 334 356 327 324 323 313 304 297 244 279 278 281 287 291 294 299 302
107 97 86 91 74 60 98 98 92 80 73 90 96 108 67 60 26 2 349 336 331 328 1 335 323 326 315 315 324 318 309 298 282 277 277 279 286 302
117 108 97 85 76 62 66 75 66 39 73 63 59 46 34 21 15 11 360 341 333 326 339 332 320 319 311 310 313 313 316 318 315 309 298 286 280 288
114 111 107 97 85 74 76 67 345 312 55 49 38 28 15 9 5 356 349 336 322 311 315 321 314 316 312 310 313 317 318 316 315 315 317 314 296 282
104 107 116 125 120 97 91 42 342 46 48 40 30 22 10 2 342 336 331 320 300 301 319 321 312 312 309 308 310 313 315 317 317 318 317 315 316 313
115 121 125 119 113 114 136 93 62 49 32 32 21 12 1 353 348 346 339 335 328 329 328 315 307 306 305 308 307 309 314 315 317 317 317 312 310 308
135 139 137 132 117 102 88 69 58 53 39 28 13 5 359 353 349 347 340 331 333 334 332 330 322 310 301 300 307 314 318 317 319 322 316 312 312 312
148 128 123 117 106 96 87 79 64 48 29 16 7 0 354 350 348 346 343 339 336 334 332 332 330 326 322 321 322 321 320 321 320 318 314 314 314 318
146 122 119 112 103 97 86 70 59 50 17 6 4 358 351 347 347 345 344 342 338 335 333 333 333 334 329 328 328 326 320 318 317 317 319 317 315 318
129 123 122 118 111 98 82 66 50 38 18 4 1 355 349 345 343 341 342 345 335 330 331 333 337 337 327 318 314 314 312 315 320 320 320 318 316 310
127 124 123 121 111 97 79 58 36 20 10 347 355 350 344 340 341 338 335 336 323 328 332 331 333 315 306 308 311 319 326 322 307 307 315 319 321 321
130 128 123 117 110 101 91 42 4 360 350 341 350 342 339 336 335 332 332 331 330 331 328 326 326 323 323 322 322 323 326 329 320 295 275 279 310 317
132 131 136 144 142 153 105 331 320 340 344 340 338 335 334 332 329 328 328 327 328 329 328 328 330 328 327 325 324 324 327 329 330 330 326 300 273 269
Height
1569 1570 1572 1573 1574 1575 1576 1577 1577 1576 1576 1577 1578 1577 1578 1577 1576 1576 1576 1575 1575 1574 1574 1574 1573 1573 1573 1572 1572 1571 1571 1570 1570 1569 1568 1568 1567 1566
1566 1567 1569 1571 1572 1573 1574 1575 1575 1575 1575 1575 1575 1575 1574 1575 1573 1573 1572 1571 1570 1570 1570 1569 1569 1568 1568 1567 1566 1566 1565 1564 1564 1563 1562 1562 1561 1560
1564 1565 1567 1568 1570 1571 1572 1572 1573 1573 1573 1573 1573 1572 1571 1571 1570 1570 1570 1569 1567 1566 1565 1565 1564 1563 1562 1561 1561 1560 1559 1558 1557 1556 1555 1555 1554 1553
1562 1564 1565 1566 1567 1568 1569 1569 1570 1570 1571 1570 1570 1570 1568 1568 1567 1567 1567 1567 1564 1562 1561 1560 1559 1558 1557 1556 1555 1554 1553 1552 1551 1550 1549 1548 1547 1546
1560 1561 1562 1564 1564 1565 1566 1567 1567 1567 1568 1568 1568 1567 1567 1566 1565 1565 1564 1562 1562 1560 1557 1556 1554 1553 1552 1551 1549 1548 1547 1546 1544 1543 1542 1541 1540 1538
1557 1559 1560 1561 1562 1563 1563 1564 1564 1565 1565 1566 1566 1565 1565 1563 1563 1563 1562 1560 1559 1558 1555 1553 1551 1549 1547 1546 1544 1543 1541 1540 1538 1536 1535 1533 1532 1531
1555 1557 1558 1559 1560 1561 1562 1562 1562 1563 1564 1564 1564 1564 1563 1561 1561 1560 1560 1558 1556 1554 1552 1551 1550 1548 1546 1542 1539 1537 1536 1534 1532 1530 1528 1526 1524 1523
1554 1555 1557 1558 1559 1560 1560 1560 1561 1561 1561 1562 1562 1562 1560 1560 1559 1558 1558 1556 1555 1552 1549 1549 1547 1545 1543 1541 1536 1533 1531 1529 1526 1524 1522 1519 1517 1515
1553 1554 1556 1556 1558 1558 1559 1559 1559 1559 1560 1560 1560 1560 1559 1558 1557 1556 1555 1553 1551 1549 1547 1546 1544 1542 1540 1536 1532 1529 1526 1524 1521 1518 1516 1513 1510 1508
1552 1553 1554 1555 1557 1558 1559 1559 1558 1558 1558 1558 1558 1558 1557 1556 1555 1554 1553 1551 1549 1547 1545 1543 1541 1538 1535 1532 1528 1525 1522 1519 1516 1513 1510 1507 1504 1500
1551 1552 1554 1555 1556 1557 1558 1558 1558 1558 1558 1557 1557 1556 1555 1554 1553 1553 1551 1550 1549 1547 1543 1541 1538 1535 1532 1529 1526 1521 1518 1514 1511 1508 1504 1501 1497 1494
1550 1552 1554 1555 1556 1557 1558 1558 1558 1558 1558 1557 1556 1555 1555 1553 1552 1550 1550 1549 1547 1545 1542 1539 1536 1533 1529 1526 1523 1519 1516 1512 1507 1503 1500 1496 1492 1489
1550 1551 1553 1554 1556 1557 1557 1558 1557 1557 1558 1558 1557 1557 1555 1554 1552 1550 1547 1546 1544 1543 1540 1536 1534 1531 1528 1523 1519 1516 1513 1509 1505 1501 1497 1493 1489 1485
1550 1551 1552 1554 1555 1555 1556 1556 1557 1558 1558 1558 1558 1556 1555 1553 1551 1548 1545 1543 1541 1539 1536 1533 1531 1528 1524 1520 1516 1512 1509 1505 1501 1497 1493 1489 1485 1481
1549 1550 1552 1554 1555 1555 1556 1556 1557 1558 1558 1558 1557 1556 1554 1551 1549 1547 1545 1542 1539 1537 1535 1531 1528 1525 1522 1518 1513 1509 1505 1502 1498 1494 1489 1485 1482 1478
1549 1550 1552 1554 1555 1556 1557 1558 1558 1557 1557 1557 1556 1555 1553 1551 1549 1547 1544 1541 1539 1537 1533 1529 1526 1522 1518 1515 1511 1506 1503 1499 1494 1490 1486 1481 1478 1474
1550 1552 1555 1557 1558 1558 1559 1559 1559 1558 1558 1557 1556 1555 1553 1551 1549 1546 1543 1541 1538 1535 1532 1528 1524 1521 1516 1513 1508 1504 1500 1496 1491 1487 1482 1477 1474 1470
1552 1554 1556 1558 1558 1559 1559 1559 1559 1558 1557 1557 1556 1554 1552 1550 1548 1545 1543 1540 1537 1534 1530 1526 1522 1518 1515 1511 1508 1502 1498 1493 1488 1484 1479 1474 1469 1466
1554 1556 1557 1558 1559 1559 1560 1560 1559 1558 1556 1556 1555 1554 1552 1550 1547 1545 1542 1539 1536 1532 1528 1525 1521 1517 1512 1508 1504 1500 1495 1490 1485 1481 1476 1471 1466 1461
1556 1557 1558 1559 1559 1559 1560 1559 1559 1558 1557 1556 1555 1553 1551 1549 1547 1544 1541 1538 1534 1531 1527 1524 1520 1516 1511 1507 1501 1497 1493 1488 1483 1478 1473 1468 1463 1458
1557 1557 1558 1559 1559 1559 1559 1559 1558 1558 1557 1556 1554 1552 1550 1548 1546 1543 1540 1537 1533 1530 1526 1523 1519 1514 1509 1505 1500 1495 1491 1486 1481 1476 1470 1465 1460 1455
1557 1558 1558 1559 1559 1559 1558 1558 1558 1557 1556 1555 1554 1552 1550 1547 1545 1542 1539 1536 1533 1529 1525 1521 1517 1512 1508 1504 1498 1493 1488 1483 1479 1473 1468 1464 1460 1454
1557 1557 1558 1558 1558 1558 1558 1557 1557 1557 1556 1554 1553 1551 1548 1546 1544 1541 1538 1535 1532 1528 1524 1519 1515 1511 1507 1502 1497 1491 1486 1481 1476 1471 1467 1463 1458 1453